Flag for South Africa Weather past 2 weeks in Pretoria, South Africa

Now
46 °F

Cool.


Feels Like: 46 °F
Forecast: 39 / 72 °F
Wind: 2 mph from Southeast

Location: Waterkloof Lmb

Current Time: Jul 24, 2014 at 1:10:19 AM

Latest Report: Jul 23, 2014 at 11:00 PM


Visibility: N/A

Pressure: 30.33 "Hg

Humidity: 57%

Dew point: 32 °F

Location of PretoriaLocation

Historic Weather in Pretoria — Graph

°F

Pretoria temperature yesterday

Maximum temperature yesterday: 72 °F (at 3:00 PM)
Minimum temperature yesterday: 36 °F (at 7:00 AM)
Average temperature yesterday: 54 °F

Past Weeks' High & Low Weather Summary

 TemperatureHumidityPressure
High72 °F (Jul 18, 2:00 PM)87% (Jul 15, 6:00 AM)30.60 "Hg (Jul 15, 6:00 AM)
Low28 °F (Jul 9, 7:00 AM)11% (Jul 19, 3:00 PM)30.09 "Hg (Jul 18, 3:00 PM)
Average50 °F46%30.38 "Hg
* Reported Jul 8 11:00 PM — Jul 23 11:00 PM, Pretoria, Weather by CustomWeather, © 2014

Note: Actual official high and low records may vary slightly from our data, if they occured in-between our weather recording intervals... More about our weather records

Advertising

Pretoria weather history for previous 24 hours

 ConditionsComfort  
Time TempWeatherWind HumidityBarometerVisibility
11:00 PM
Jul 23
46 °FCool.2 mph57%30.33 "HgN/A
10:00 PM50 °FCool.No wind50%30.33 "HgN/A
9:00 PM50 °FCool.1 mph50%30.33 "HgN/A
8:00 PM54 °FCool.1 mph41%30.33 "HgN/A
7:00 PM57 °FRefreshingly cool.2 mph39%30.30 "HgN/A
6:00 PM61 °FRefreshingly cool.5 mph31%30.30 "HgN/A
5:00 PM70 °FMild.3 mph20%30.27 "HgN/A
4:00 PM72 °FMild.6 mph20%30.27 "HgN/A
3:00 PM72 °FMild.6 mph20%30.27 "HgN/A
2:00 PM70 °FMild.8 mph21%30.30 "HgN/A
1:00 PM68 °FMild.7 mph26%30.33 "HgN/A
12:00 PM66 °FMild.6 mph28%30.36 "HgN/A
10:00 AM61 °FRefreshingly cool.7 mph36%30.39 "HgN/A
8:00 AM45 °FQuite cool.1 mph71%30.36 "HgN/A
7:00 AM36 °FChilly.1 mph87%30.33 "HgN/A
6:00 AM37 °FChilly.No wind81%30.33 "HgN/A
5:00 AM39 °FChilly.2 mph75%30.33 "HgN/A
4:00 AM41 °FQuite cool.1 mph70%30.33 "HgN/A
3:00 AM43 °FQuite cool.No wind71%30.33 "HgN/A
2:00 AM43 °FQuite cool.1 mph66%30.33 "HgN/A
1:00 AM46 °FCool.2 mph57%30.33 "HgN/A
Weather by CustomWeather, © 2014

See weather overviewHow to use our weather pages